Aeroporto :
LOGIN :

Iscrizione | Disclaimer

   EN    FR    IT 

 










Sommario :    VFR   VFR Marginale   IFR   IFR Intensivo   IFR Molto Intensivo
Visibilità : 
Base nubi : 
>= 8 km
>= 3000ft
5 / 8 km
1000 / 3000 ft
1500m / 5 km
500 / 1000 ft
800 / 1500m
200 / 500 ft
< 800m
< 200 ft
Simboli :   Temporali  Nebbia  Neve Forte  Precipitazioni Forti  Vento > 20 kt
SIGMETs :   Varie  Temporali  Ghiacco  Turbolenza  Onda orograficha  Ceneri Vulcaniche






- Altitudine del aeroporto : 126 ft
- Codice IATA : TIA


LATI - Rinas Mother Teresa Arpt - Tirana

ULTIMO METAR :
  • 131350Z 35011KT CAVOK 33/21 Q1014 NOSIG

METARs OBSOLETI :
  • 131320Z 34010KT CAVOK 34/18 Q1014 NOSIG
  • 131250Z 31008KT 260V350 CAVOK 35/17 Q1014 NOSIG
  • 131220Z 31009KT 290V350 CAVOK 34/16 Q1014 NOSIG
  • 131150Z 32007KT 300V360 CAVOK 34/18 Q1014 NOSIG
  • 131120Z 33007KT 290V010 CAVOK 34/16 Q1014 NOSIG

TAF TAF LATI
Valido dal 13 a 12 ore il 14 a 12 ore UTC


131100Z 1312/1412 33013KT CAVOK TX36/1411Z TN20/1404Z
BECMG 1317/1319 VRB02KT



MetMap, La meteo Aeronautica in un colpo d'occhio ! - Copyright ORBIFLY Dicembre 2007 - Disclaimer

ORBIFLY MET'MAP TEAM :

Programmazione e sviluppo : Alexandra Zaïnal
Concezione : Baudouin d'Aumeries
Aiuto per la programmazione : Marc-Olivier Méhu
Supporto tecnico e logistico : Manuel Goepfert
Aiuto per la traduzione : Arnaldo La Scala

Contatto : metmap@orbifly.com




FONTI E CREDITI :

   NOAA